[[{"header":{"parameterUnit":"m.s-1","parameterCategory":2,"la1":30.2992,"la2":30.254,"lo1":-89.0895,"lo2":-89.0443,"dy":0.0025,"dx":0.0025,"nx":19,"ny":19,"refTime":"2026-04-17T09:00:00:Z","depth":"0","parameterNumber":2,"parameterNumberName":"U-component_of_CURRENTS"},"data":[0,0,0,-0.3188,-0.3188,-0.3204,-0.3204,-0.3286,-0.3287,0,0,0,0,0,0,0,0,0,0,0,-0.3174,-0.3174,-0.3188,-0.3188,-0.3204,-0.3204,-0.3286,-0.3287,0,0,0,0,0,0,0,0,0,0,0,-0.3174,-0.3174,-0.3174,-0.3189,-0.3204,-0.3204,-0.3286,-0.3258,0,0,0,0,0,0,0,0,0,0,-0.3235,-0.3208,-0.3174,-0.3174,-0.3189,-0.3204,-0.3204,-0.3256,-0.326,-0.3297,0,-0.3293,0,-0.3299,-0.3294,-0.3294,0,0,0,-0.3186,-0.3204,-0.3217,-0.3174,-0.3189,-0.3204,-0.3196,-0.3257,-0.3262,-0.3303,-0.3294,-0.3297,-0.33,-0.3295,-0.3295,-0.3441,-0.3441,0,0,-0.3185,-0.3173,-0.3214,-0.3219,-0.3187,-0.3196,-0.3197,-0.3259,-0.3258,-0.3295,-0.3299,-0.3302,-0.3295,-0.3296,-0.344,-0.3441,0,0,0,-0.3184,-0.3172,-0.3182,-0.3216,-0.3218,-0.3196,-0.3198,-0.3255,-0.326,-0.33,-0.3303,-0.3296,-0.3297,-0.3439,-0.344,-0.34,0,0,0,-0.3184,-0.3172,-0.3181,-0.3174,-0.3216,-0.3227,-0.3192,-0.3255,-0.3263,-0.3302,-0.3296,-0.3298,-0.3438,-0.344,-0.3399,-0.3377,0,0,0,-0.3175,-0.3172,-0.3173,-0.3173,-0.3183,-0.3226,-0.3234,-0.3256,-0.3265,-0.3294,-0.3299,-0.3437,-0.3439,-0.3399,-0.3377,-0.3335,0,0,0,-0.3163,-0.3168,-0.3172,-0.3188,-0.3182,-0.3228,-0.3233,-0.3261,-0.3285,-0.3297,-0.3438,-0.344,-0.3398,-0.3377,-0.3335,-0.3199,-0.3185,0,0,-0.3168,-0.3168,-0.3182,-0.3187,-0.3221,-0.3226,-0.3275,-0.3299,-0.3333,-0.3419,-0.3422,-0.34,-0.3377,-0.3335,-0.3309,-0.3291,0,0,0,-0.3184,-0.3185,-0.3201,-0.3217,-0.3253,-0.3277,-0.3306,-0.3331,-0.3386,-0.3357,-0.345,-0.3438,-0.3411,-0.3333,-0.332,-0.3106,-0.3449,-0.3449,-0.3448,-0.3143,-0.3177,-0.3198,-0.3238,-0.3271,-0.3318,-0.334,-0.3388,-0.3417,-0.3444,-0.3442,-0.3436,-0.3356,-0.3344,-0.3127,-0.3489,-0.3489,-0.3489,-0.3489,-0.3131,-0.313,-0.3186,-0.3217,-0.3263,-0.3304,-0.3381,-0.3394,-0.3431,-0.3468,-0.3443,-0.3342,-0.3327,-0.31,-0.3487,-0.3487,-0.3487,-0.3488,-0.3488,-0.3079,-0.3082,-0.3117,-0.3162,-0.3207,-0.3277,-0.3295,-0.3359,-0.3395,-0.3385,-0.3285,-0.3284,-0.3047,-0.3363,-0.3363,-0.3363,-0.3362,-0.3362,-0.3362,-0.2991,-0.3032,-0.3044,-0.3101,-0.3124,-0.3166,-0.3238,-0.3235,-0.3224,-0.3237,-0.3236,-0.3021,-0.3397,-0.3359,-0.3358,-0.3359,-0.3359,-0.336,-0.336,-0.2901,-0.2931,-0.2939,-0.2962,-0.3006,-0.2973,-0.3078,-0.3022,-0.3033,-0.2983,-0.279,-0.3151,-0.3141,-0.3151,-0.3109,-0.3043,-0.3043,-0.3043,-0.3043,-0.2826,-0.2847,-0.2819,-0.2818,-0.2833,-0.2869,-0.2759,-0.278,-0.2675,-0.2576,-0.254,-0.2509,-0.2531,-0.2486,-0.2511,-0.2456,-0.2226,-0.2225,-0.2224,-0.2763,-0.2768,-0.2697,-0.2702,-0.2721,-0.271,-0.2562,-0.2439,-0.2283,-0.2174,-0.2264,-0.2299,-0.2243,-0.2296,-0.2225,-0.2277,-0.2191,0,0]},{"header":{"parameterUnit":"m.s-1","parameterCategory":2,"la1":30.2992,"la2":30.254,"lo1":-89.0895,"lo2":-89.0443,"dy":0.0025,"dx":0.0025,"nx":19,"ny":19,"refTime":"2026-04-17T09:00:00:Z","depth":"0","parameterNumber":3,"parameterNumberName":"V-component_of_CURRENTS"},"data":[0,0,0,-0.0372,-0.037,-0.0249,-0.0248,-0.0068,-0.0066,0,0,0,0,0,0,0,0,0,0,0,-0.0412,-0.0412,-0.0372,-0.037,-0.0249,-0.0248,-0.0068,-0.0066,0,0,0,0,0,0,0,0,0,0,0,-0.0412,-0.0412,-0.0411,-0.037,-0.0249,-0.0248,-0.0068,-0.016,0,0,0,0,0,0,0,0,0,0,-0.0278,-0.0325,-0.0412,-0.0411,-0.0369,-0.025,-0.0248,-0.0164,-0.0154,-0.0123,0,-0.012,0,-0.01,-0.0056,-0.0055,0,0,0,-0.0344,-0.0334,-0.0309,-0.0411,-0.0368,-0.025,-0.0296,-0.0158,-0.0147,-0.011,-0.0117,-0.011,-0.0097,-0.0055,-0.0054,-0.0015,-0.0015,0,0,-0.0351,-0.0375,-0.0317,-0.0303,-0.0356,-0.03,-0.0293,-0.0152,-0.0143,-0.0116,-0.0106,-0.0094,-0.0054,-0.0053,-0.0014,-0.0015,0,0,0,-0.0387,-0.038,-0.0358,-0.031,-0.0296,-0.0298,-0.0289,-0.0148,-0.0144,-0.0104,-0.0092,-0.0053,-0.0051,-0.0013,-0.0014,-0.015,0,0,0,-0.039,-0.0403,-0.0362,-0.0373,-0.03,-0.0224,-0.0289,-0.0153,-0.0137,-0.0093,-0.0053,-0.005,-0.0012,-0.0014,-0.0145,-0.0211,0,0,0,-0.0414,-0.0405,-0.0399,-0.0375,-0.0335,-0.0227,-0.0212,-0.0149,-0.0131,-0.0055,-0.0049,-0.0012,-0.0014,-0.014,-0.0202,-0.0272,0,0,0,-0.0431,-0.0441,-0.04,-0.0412,-0.0337,-0.0315,-0.0213,-0.0168,-0.0115,-0.0052,-0.0013,-0.0014,-0.0139,-0.0197,-0.0267,-0.0406,-0.0443,0,0,-0.0458,-0.0445,-0.0456,-0.0417,-0.0435,-0.0329,-0.0335,-0.0215,-0.013,-0.005,-0.0049,-0.0147,-0.0202,-0.0271,-0.0505,-0.0539,0,0,0,-0.0475,-0.0489,-0.0486,-0.0485,-0.0448,-0.0426,-0.0314,-0.027,-0.0199,-0.011,-0.0143,-0.0174,-0.0213,-0.0286,-0.0313,0.0134,-0.0022,-0.0022,-0.0022,-0.0535,-0.0534,-0.0571,-0.0567,-0.0552,-0.0486,-0.0465,-0.0386,-0.0281,-0.0282,-0.0282,-0.0425,-0.0505,-0.0527,-0.0064,-0.0275,-0.0275,-0.0276,-0.0276,-0.0622,-0.0659,-0.0657,-0.0692,-0.0669,-0.0661,-0.0594,-0.0535,-0.0513,-0.0405,-0.0437,-0.0423,-0.0565,-0.006,-0.0285,-0.0283,-0.0282,-0.0281,-0.0281,-0.0687,-0.071,-0.0726,-0.0787,-0.0814,-0.0767,-0.0814,-0.0728,-0.0642,-0.0676,-0.0715,-0.0713,-0.027,-0.0678,-0.0678,-0.0679,-0.0679,-0.068,-0.068,-0.0749,-0.0772,-0.0847,-0.0889,-0.093,-0.0961,-0.0933,-0.0947,-0.0939,-0.0883,-0.0883,-0.0273,-0.0547,-0.0532,-0.069,-0.0688,-0.0687,-0.0686,-0.0685,-0.085,-0.0853,-0.0969,-0.1027,-0.1133,-0.126,-0.1198,-0.1278,-0.1258,-0.1304,-0.0579,-0.0988,-0.0955,-0.0933,-0.0927,-0.1177,-0.1177,-0.1177,-0.1177,-0.0919,-0.0929,-0.1106,-0.1222,-0.1342,-0.1404,-0.1599,-0.1541,-0.1092,-0.0738,-0.0521,-0.0384,-0.0384,-0.0303,-0.0295,-0.0268,-0.0345,-0.0343,-0.0341,-0.1006,-0.1042,-0.1195,-0.1301,-0.1445,-0.16,-0.1799,-0.1492,-0.0631,-0.0246,0.014,0.0104,0.0376,0.0339,0.0524,0.0499,0.0563,0,0]}],[{"header":{"parameterUnit":"m.s-1","parameterCategory":2,"la1":30.2992,"la2":30.254,"lo1":-89.0895,"lo2":-89.0443,"dy":0.0025,"dx":0.0025,"nx":19,"ny":19,"refTime":"2026-04-17T09:00:00:Z","depth":"2","parameterNumber":2,"parameterNumberName":"U-component_of_CURRENTS"},"data":[0,0,0,-0.2287,-0.2291,-0.2475,-0.2476,-0.2607,-0.2608,0,0,0,0,0,0,0,0,0,0,0,-0.2208,-0.2209,-0.2287,-0.2291,-0.2475,-0.2476,-0.2607,-0.2608,0,0,0,0,0,0,0,0,0,0,0,-0.2207,-0.2208,-0.2209,-0.2292,-0.2475,-0.2476,-0.2606,-0.2495,0,0,0,0,0,0,0,0,0,0,-0.2329,-0.2259,-0.2208,-0.2209,-0.2293,-0.2475,-0.2476,-0.249,-0.2501,-0.2492,0,-0.2512,0,-0.2566,-0.2613,-0.2614,0,0,0,-0.2296,-0.2249,-0.2312,-0.2209,-0.2294,-0.2474,-0.2393,-0.2497,-0.251,-0.2506,-0.2515,-0.2521,-0.2568,-0.2614,-0.2614,-0.2752,-0.2753,0,0,-0.2286,-0.2231,-0.2303,-0.2319,-0.233,-0.2387,-0.2399,-0.2506,-0.2503,-0.2515,-0.2525,-0.257,-0.2615,-0.2615,-0.2751,-0.2752,0,0,0,-0.2253,-0.2224,-0.2286,-0.2312,-0.2356,-0.2393,-0.2406,-0.2498,-0.2522,-0.2527,-0.2572,-0.2615,-0.2616,-0.275,-0.2752,-0.2754,0,0,0,-0.2247,-0.2206,-0.228,-0.2249,-0.2354,-0.2442,-0.2395,-0.2515,-0.253,-0.2571,-0.2615,-0.2617,-0.2749,-0.2751,-0.2752,-0.2741,0,0,0,-0.2202,-0.2201,-0.2221,-0.2246,-0.2328,-0.2442,-0.2473,-0.252,-0.2556,-0.2614,-0.2617,-0.2749,-0.2751,-0.275,-0.2739,-0.2726,0,0,0,-0.2142,-0.2179,-0.2219,-0.2285,-0.2326,-0.2472,-0.2473,-0.2575,-0.2629,-0.2616,-0.2749,-0.2751,-0.275,-0.2738,-0.2726,-0.2581,-0.2573,0,0,-0.2163,-0.218,-0.2227,-0.227,-0.2401,-0.2447,-0.2563,-0.2625,-0.2654,-0.2705,-0.271,-0.2753,-0.2739,-0.2726,-0.2697,-0.2685,0,0,0,-0.222,-0.2246,-0.2296,-0.238,-0.2487,-0.2567,-0.2643,-0.2667,-0.2738,-0.2695,-0.2793,-0.2785,-0.2776,-0.2689,-0.2681,-0.2761,-0.2761,-0.276,-0.276,-0.2159,-0.2252,-0.2332,-0.2448,-0.2536,-0.2655,-0.2711,-0.2758,-0.2778,-0.2812,-0.2817,-0.2851,-0.2761,-0.2753,-0.2859,-0.2859,-0.2859,-0.2859,-0.2859,-0.2181,-0.2223,-0.2341,-0.2447,-0.2551,-0.2644,-0.2762,-0.2788,-0.2844,-0.2857,-0.2848,-0.2734,-0.2743,-0.286,-0.286,-0.286,-0.286,-0.286,-0.2859,-0.2116,-0.2148,-0.2227,-0.2368,-0.2484,-0.2622,-0.27,-0.2783,-0.284,-0.2858,-0.2751,-0.2749,-0.2812,-0.2852,-0.2852,-0.2852,-0.2852,-0.2852,-0.2852,-0.1998,-0.2086,-0.2133,-0.2288,-0.2365,-0.2484,-0.2653,-0.2695,-0.2722,-0.2741,-0.274,-0.2848,-0.2848,-0.2813,-0.2851,-0.2851,-0.2851,-0.2851,-0.2851,-0.1906,-0.1941,-0.199,-0.2058,-0.2212,-0.2258,-0.2461,-0.2519,-0.2586,-0.2561,-0.2666,-0.2671,-0.2646,-0.2652,-0.2613,-0.2597,-0.2597,-0.2597,-0.2597,-0.1805,-0.1842,-0.1828,-0.1857,-0.1944,-0.2114,-0.2125,-0.2158,-0.2273,-0.2191,-0.2208,-0.2163,-0.2183,-0.2131,-0.2148,-0.2099,-0.1948,-0.1947,-0.1946,-0.1726,-0.1731,-0.1642,-0.1671,-0.1769,-0.1911,-0.1867,-0.1741,-0.1634,-0.1915,-0.2045,-0.2563,-0.2545,-0.2558,-0.2518,-0.253,-0.2467,0,0]},{"header":{"parameterUnit":"m.s-1","parameterCategory":2,"la1":30.2992,"la2":30.254,"lo1":-89.0895,"lo2":-89.0443,"dy":0.0025,"dx":0.0025,"nx":19,"ny":19,"refTime":"2026-04-17T09:00:00:Z","depth":"2","parameterNumber":3,"parameterNumberName":"V-component_of_CURRENTS"},"data":[0,0,0,0.0081,0.0082,0.0177,0.0177,0.0363,0.0365,0,0,0,0,0,0,0,0,0,0,0,0.0037,0.0037,0.0081,0.0082,0.0177,0.0177,0.0363,0.0365,0,0,0,0,0,0,0,0,0,0,0,0.0037,0.0037,0.0036,0.0083,0.0176,0.0177,0.0363,0.028,0,0,0,0,0,0,0,0,0,0,0.0183,0.0113,0.0037,0.0036,0.0083,0.0176,0.0177,0.0276,0.0286,0.0333,0,0.0323,0,0.0346,0.0377,0.0378,0,0,0,0.0103,0.0104,0.014,0.0036,0.0084,0.0176,0.014,0.0281,0.0292,0.0346,0.0325,0.0333,0.0349,0.0378,0.0379,0.048,0.048,0,0,0.0098,0.0055,0.0132,0.0146,0.0078,0.0137,0.0143,0.0287,0.0281,0.0326,0.0337,0.0352,0.0379,0.0381,0.048,0.048,0,0,0,0.0069,0.0051,0.0082,0.0138,0.0149,0.0139,0.0146,0.0275,0.0287,0.0339,0.0354,0.038,0.0383,0.048,0.048,0.0306,0,0,0,0.0067,0.0033,0.0079,0.0055,0.0144,0.0201,0.013,0.0276,0.0294,0.0354,0.0381,0.0384,0.0481,0.048,0.0312,0.0277,0,0,0,0.0038,0.003,0.0034,0.0052,0.0086,0.0199,0.022,0.0281,0.0303,0.0378,0.0385,0.0481,0.048,0.0316,0.0284,0.0258,0,0,0,0.0004,-0.0038,0.0031,-0.0008,0.0084,0.0106,0.0219,0.0247,0.0295,0.0381,0.0481,0.048,0.0318,0.0289,0.0262,0.0253,0.0234,0,0,-0.007,-0.0049,-0.007,-0.0005,-0.0022,0.0097,0.0101,0.0212,0.0312,0.0443,0.0445,0.031,0.0285,0.0259,0.022,0.0201,0,0,0,-0.0107,-0.013,-0.0121,-0.0113,-0.0058,0.0006,0.0109,0.0172,0.0266,0.0337,0.0347,0.0339,0.0327,0.0332,0.0316,0.0477,0.0477,0.0478,0.0478,-0.0257,-0.0218,-0.0259,-0.0207,-0.0176,-0.006,-0.0001,0.0116,0.0191,0.0205,0.0222,0.0125,0.0126,0.0115,0.0232,0.0232,0.0231,0.023,0.023,-0.0388,-0.0412,-0.0356,-0.0382,-0.0285,-0.0259,-0.0094,-0.0032,0.0054,0.0124,0.0119,0.018,0.0088,0.0217,0.0219,0.0221,0.0223,0.0224,0.0224,-0.0487,-0.0494,-0.0502,-0.0516,-0.0485,-0.0372,-0.0315,-0.0192,-0.008,-0.0084,-0.0033,-0.003,0.0034,-0.0106,-0.0106,-0.0107,-0.0107,-0.0107,-0.0107,-0.0584,-0.0588,-0.0646,-0.0646,-0.065,-0.06,-0.0449,-0.0378,-0.0264,-0.0175,-0.0174,0.0014,0.0025,0.002,-0.0112,-0.0111,-0.0111,-0.011,-0.011,-0.07,-0.0697,-0.078,-0.0808,-0.0815,-0.0797,-0.0653,-0.0515,-0.0434,-0.0388,-0.02,-0.0196,-0.012,-0.0105,-0.011,-0.0267,-0.0267,-0.0267,-0.0267,-0.0773,-0.0781,-0.0879,-0.0929,-0.0949,-0.0878,-0.0787,-0.0488,-0.0288,-0.0101,-0.0107,-0.0048,-0.0048,0.004,0.0051,0.0053,-0.0061,-0.0061,-0.006,-0.0846,-0.086,-0.0933,-0.0976,-0.1004,-0.0964,-0.0814,-0.0411,-0.0034,-0.0041,0.0037,-0.0275,-0.0205,-0.0197,-0.0068,-0.0048,-0.0047,0,0]}],[{"header":{"parameterUnit":"m.s-1","parameterCategory":2,"la1":30.2992,"la2":30.254,"lo1":-89.0895,"lo2":-89.0443,"dy":0.0025,"dx":0.0025,"nx":19,"ny":19,"refTime":"2026-04-17T09:00:00:Z","depth":"4","parameterNumber":2,"parameterNumberName":"U-component_of_CURRENTS"},"data":[0,0,0,-0.1012,-0.1014,-0.1136,-0.1137,-0.13,-0.1301,0,0,0,0,0,0,0,0,0,0,0,-0.0973,-0.0974,-0.1012,-0.1015,-0.1136,-0.1137,-0.13,-0.1301,0,0,0,0,0,0,0,0,0,0,0,-0.0973,-0.0974,-0.0974,-0.1015,-0.1136,-0.1137,-0.13,-0.1209,0,0,0,0,0,0,0,0,0,0,-0.1091,-0.105,-0.0973,-0.0974,-0.1015,-0.1136,-0.1137,-0.1205,-0.1215,-0.1243,0,-0.1257,0,-0.1277,-0.1311,-0.1312,0,0,0,-0.1028,-0.1042,-0.1071,-0.0975,-0.1016,-0.1135,-0.1085,-0.121,-0.1222,-0.1256,-0.126,-0.1266,-0.128,-0.1312,-0.1313,-0.1435,-0.1435,0,0,-0.1021,-0.1002,-0.1063,-0.1078,-0.1043,-0.1081,-0.1089,-0.1217,-0.1229,-0.126,-0.127,-0.1282,-0.1313,-0.1314,-0.1434,-0.1435,0,0,0,-0.0993,-0.0998,-0.1024,-0.1071,-0.1089,-0.1084,-0.1093,-0.1224,-0.1231,-0.1272,-0.1284,-0.1314,-0.1316,-0.1434,-0.1434,-0.1429,0,0,0,-0.099,-0.098,-0.1021,-0.1012,-0.1086,-0.1157,-0.1096,-0.1223,-0.1238,-0.1283,-0.1314,-0.1317,-0.1434,-0.1434,-0.1429,-0.1423,0,0,0,-0.0968,-0.0978,-0.0989,-0.101,-0.1056,-0.1155,-0.1171,-0.1227,-0.1245,-0.1312,-0.1318,-0.1434,-0.1434,-0.1428,-0.1422,-0.1427,0,0,0,-0.0949,-0.0952,-0.0989,-0.1009,-0.1054,-0.1117,-0.1171,-0.1247,-0.1305,-0.1315,-0.1434,-0.1434,-0.1428,-0.1422,-0.1427,-0.1266,0,0,0,-0.0935,-0.095,-0.0963,-0.0999,-0.1042,-0.1101,-0.1161,-0.1269,-0.1321,-0.1394,-0.1397,-0.1429,-0.1422,-0.1427,-0.13,0,0,0,0,-0.0948,-0.0953,-0.0973,-0.1016,-0.1073,-0.1142,-0.1228,-0.1276,-0.1378,-0.1354,-0.1441,-0.1438,-0.1441,-0.1347,-0.1437,-0.1437,-0.1437,-0.1437,-0.1437,-0.0896,-0.094,-0.0959,-0.1018,-0.1071,-0.1182,-0.1248,-0.1332,-0.1371,-0.1422,-0.1443,-0.1455,-0.1357,-0.1456,-0.1456,-0.1456,-0.1456,-0.1456,-0.1456,-0.0861,-0.0869,-0.0942,-0.0974,-0.1068,-0.1137,-0.1275,-0.1337,-0.1429,-0.1452,-0.1456,-0.136,-0.1456,-0.1456,-0.1456,-0.1456,-0.1456,-0.1456,-0.1456,-0.0823,-0.0825,-0.0867,-0.0922,-0.1011,-0.112,-0.1224,-0.1338,-0.142,-0.1452,-0.1354,-0.1455,-0.1444,-0.1453,-0.1453,-0.1453,-0.1454,-0.1454,-0.1454,-0.0755,-0.0792,-0.0817,-0.0871,-0.0921,-0.1023,-0.1206,-0.1271,-0.1364,-0.1331,-0.1449,-0.1455,-0.1455,-0.1445,-0.1454,-0.1454,-0.1454,-0.1454,-0.1454,-0.068,-0.0725,-0.0745,-0.0785,-0.0885,-0.0948,-0.1109,-0.118,-0.1224,-0.1206,-0.1268,-0.1277,-0.1264,-0.1269,-0.1252,-0.1204,-0.1202,-0.12,0,-0.0628,-0.0651,-0.0708,-0.0772,-0.0826,-0.0929,-0.0958,-0.1036,-0.1109,-0.1081,-0.1239,-0.131,-0.1315,-0.1303,-0.1304,-0.1283,0,0,0,-0.0571,-0.0608,-0.0642,-0.0742,-0.0815,-0.0882,-0.0973,-0.0969,-0.1082,-0.1057,-0.1148,-0.1162,-0.1328,-0.1454,-0.1456,-0.1456,-0.144,0,0]},{"header":{"parameterUnit":"m.s-1","parameterCategory":2,"la1":30.2992,"la2":30.254,"lo1":-89.0895,"lo2":-89.0443,"dy":0.0025,"dx":0.0025,"nx":19,"ny":19,"refTime":"2026-04-17T09:00:00:Z","depth":"4","parameterNumber":3,"parameterNumberName":"V-component_of_CURRENTS"},"data":[0,0,0,-0.031,-0.0311,-0.0328,-0.0328,-0.0269,-0.0269,0,0,0,0,0,0,0,0,0,0,0,-0.0298,-0.0298,-0.031,-0.0311,-0.0328,-0.0328,-0.027,-0.0269,0,0,0,0,0,0,0,0,0,0,0,-0.0298,-0.0298,-0.0299,-0.0311,-0.0328,-0.0328,-0.027,-0.0274,0,0,0,0,0,0,0,0,0,0,-0.0267,-0.0274,-0.0298,-0.0299,-0.0312,-0.0328,-0.0328,-0.0275,-0.0274,-0.0243,0,-0.0252,0,-0.0266,-0.0264,-0.0264,0,0,0,-0.0299,-0.0275,-0.028,-0.0299,-0.0312,-0.0328,-0.0317,-0.0275,-0.0273,-0.0241,-0.0252,-0.025,-0.0265,-0.0264,-0.0264,-0.0257,-0.0257,0,0,-0.0298,-0.0297,-0.0282,-0.028,-0.0323,-0.0316,-0.0317,-0.0275,-0.0273,-0.0252,-0.025,-0.0264,-0.0263,-0.0263,-0.0256,-0.0257,0,0,0,-0.0304,-0.0296,-0.0303,-0.0281,-0.0294,-0.0317,-0.0318,-0.0275,-0.0278,-0.0249,-0.0263,-0.0263,-0.0262,-0.0256,-0.0257,-0.0327,0,0,0,-0.0302,-0.03,-0.0303,-0.0302,-0.0296,-0.0297,-0.032,-0.0281,-0.0277,-0.0263,-0.0263,-0.0262,-0.0255,-0.0256,-0.0324,-0.0329,0,0,0,-0.0296,-0.03,-0.0304,-0.0302,-0.0316,-0.0299,-0.0299,-0.0281,-0.0286,-0.0264,-0.0261,-0.0255,-0.0256,-0.0321,-0.0325,-0.0264,0,0,0,-0.029,-0.0328,-0.0304,-0.0352,-0.0316,-0.0367,-0.03,-0.0324,-0.0316,-0.0263,-0.0255,-0.0257,-0.032,-0.0323,-0.0263,-0.0178,0,0,0,-0.0342,-0.0334,-0.0365,-0.0345,-0.0413,-0.0363,-0.0414,-0.0368,-0.0315,-0.026,-0.0261,-0.0325,-0.0325,-0.0264,-0.024,0,0,0,0,-0.0385,-0.0401,-0.0422,-0.0447,-0.0468,-0.0467,-0.0437,-0.0404,-0.0357,-0.0316,-0.0326,-0.0323,-0.0282,-0.0231,-0.0262,-0.0261,-0.0261,-0.0261,-0.0261,-0.0429,-0.0447,-0.0501,-0.0522,-0.0543,-0.0538,-0.0521,-0.046,-0.0421,-0.0406,-0.0383,-0.0387,-0.0342,-0.0398,-0.0399,-0.0399,-0.0399,-0.0399,-0.04,-0.0499,-0.0525,-0.054,-0.0601,-0.0599,-0.0623,-0.0571,-0.0536,-0.0455,-0.0439,-0.0395,-0.0316,-0.0407,-0.0405,-0.0404,-0.0403,-0.0403,-0.0402,-0.0402,-0.0513,-0.053,-0.0567,-0.0628,-0.0657,-0.0659,-0.0615,-0.0576,-0.0493,-0.0471,-0.0339,-0.0395,-0.038,-0.0429,-0.0428,-0.0428,-0.0428,-0.0428,-0.0428,-0.051,-0.0547,-0.0596,-0.0652,-0.068,-0.0682,-0.0626,-0.0551,-0.0479,-0.038,-0.0459,-0.0394,-0.0393,-0.0379,-0.0425,-0.0425,-0.0426,-0.0426,-0.0426,-0.0527,-0.0539,-0.0607,-0.0646,-0.0699,-0.0683,-0.0639,-0.0451,-0.035,-0.0242,-0.0303,-0.031,-0.025,-0.0251,-0.023,-0.0232,-0.0231,-0.023,0,-0.052,-0.0537,-0.0618,-0.067,-0.0685,-0.0682,-0.0515,-0.0413,-0.03,-0.0301,-0.0378,-0.046,-0.046,-0.0406,-0.0405,-0.0388,0,0,0,-0.0525,-0.0552,-0.0601,-0.0667,-0.0688,-0.0547,-0.047,-0.0386,-0.033,-0.0172,-0.0205,-0.0211,-0.0365,-0.0415,-0.0337,-0.0336,-0.0307,0,0]}]]